Hyannis, MA

2:34 PM EDT on April 22, 2018 (GMT -0400)
Barnstable Municipal-Boardman-Polando Field

Weather History for KHYA - July, 2013

Change the Weather History Date:

Friday, July 12, 2013

  Actual Average Record
Temperature  
Mean Temperature 70 °F -  
Max Temperature 75 °F 77 °F 89 °F (1966)
Min Temperature 66 °F 61 °F 46 °F (2002)
Cooling Degree Days 4    
Growing Degree Days 20 (Base 50)    
Moisture  
Dew Point 67 °F    
Average Humidity 89    
Maximum Humidity 100    
Minimum Humidity 71    
Precipitation  
Precipitation 0.00 in - - ()
Sea Level Pressure  
Sea Level Pressure 30.03 in    
Wind  
Wind Speed 6 mph (NNE)    
Max Wind Speed 14 mph    
Max Gust Speed 20 mph    
Visibility 6 miles    
Events Fog    
Averages and records for this station are not official NWS values.
T = Trace of Precipitation, MM = Missing Value Source: NWS Daily Summary

Daily Weather History Graph

Daily Weather History Graph

Search for Another Location

Airport or City:

Astronomy

Jul. 12, 2013 Rise Set
Actual Time 5:17 AM EDT 8:15 PM EDT
Civil Twilight 4:44 AM EDT 8:48 PM EDT
Nautical Twilight 4:02 AM EDT 9:30 PM EDT
Astronomical Twilight 3:12 AM EDT 10:20 PM EDT
Moon 9:35 AM EDT (7/12) 10:19 PM EDT (7/12)
Length of Visible Light 16h 04m
Length of Day
14h 57m
Waxing Crescent, 17% of the Moon is Illuminated
Jul 12
Waxing Crescent
Jul 15
First Quarter
Jul 22
Full
Jul 29
Last Quarter
Aug 6
New

Hourly Weather History & Observations

Time (EDT) Temp. Dew Point Humidity Pressure Visibility Wind Dir Wind Speed Gust Speed Precip Events Conditions
12:56 AM 72.0 °F 70.0 °F 93% 29.90 in 6.0 mi SW 4.6 mph - N/A   Overcast
1:56 AM 72.0 °F 70.0 °F 93% 29.91 in 5.0 mi Calm Calm - N/A   Overcast
2:06 AM 71.6 °F 69.8 °F 94% 29.90 in 1.8 mi Calm Calm - N/A   Overcast
2:41 AM 71.6 °F 69.8 °F 94% 29.91 in 0.5 mi North 3.5 mph - N/A Fog Fog
2:56 AM 71.1 °F 70.0 °F 96% 29.92 in 2.0 mi Calm Calm - N/A   Overcast
3:08 AM 71.6 °F 69.8 °F 94% 29.92 in 4.0 mi North 3.5 mph - N/A   Overcast
3:15 AM 71.6 °F 69.8 °F 94% 29.92 in 4.0 mi North 3.5 mph - N/A   Overcast
3:34 AM 71.6 °F 71.6 °F 100% 29.93 in 2.5 mi North 4.6 mph - N/A   Overcast
3:46 AM 71.6 °F 71.6 °F 100% 29.93 in 1.2 mi NNW 4.6 mph - N/A   Overcast
3:56 AM 72.0 °F 70.0 °F 93% 29.94 in 1.2 mi North 5.8 mph - N/A   Overcast
4:08 AM 71.6 °F 69.8 °F 94% 29.94 in 2.5 mi North 6.9 mph - N/A   Overcast
4:34 AM 71.6 °F 69.8 °F 94% 29.95 in 1.0 mi North 6.9 mph - N/A   Overcast
4:41 AM 69.8 °F 69.8 °F 100% 29.95 in 0.5 mi North 6.9 mph - N/A Fog Fog
4:56 AM 70.0 °F 69.1 °F 97% 29.96 in 0.5 mi NNE 8.1 mph - N/A Fog Fog
5:12 AM 69.8 °F 69.8 °F 100% 29.96 in 1.0 mi NNE 6.9 mph - N/A   Mist
5:21 AM 69.8 °F 69.8 °F 100% 29.96 in 0.5 mi NNE 8.1 mph - N/A Fog Fog
5:42 AM 69.8 °F 69.8 °F 100% 29.97 in 1.5 mi NNE 8.1 mph - N/A   Overcast
5:53 AM 69.8 °F 69.8 °F 100% 29.97 in 2.5 mi NNE 11.5 mph - N/A   Overcast
5:56 AM 70.0 °F 69.1 °F 97% 29.97 in 3.0 mi NNE 9.2 mph - N/A   Overcast
6:56 AM 70.0 °F 69.1 °F 97% 29.99 in 8.0 mi NE 6.9 mph - N/A   Overcast
7:56 AM 71.1 °F 69.1 °F 93% 30.01 in 10.0 mi NNE 8.1 mph - N/A   Overcast
8:27 AM 71.6 °F 69.8 °F 94% 30.02 in 10.0 mi NNE 10.4 mph - N/A   Overcast
8:56 AM 72.0 °F 69.1 °F 91% 30.02 in 10.0 mi NE 8.1 mph - N/A   Overcast
9:56 AM 73.9 °F 69.1 °F 85% 30.03 in 10.0 mi NE 9.2 mph - N/A   Overcast
10:03 AM 73.4 °F 69.8 °F 88% 30.03 in 10.0 mi NNE 9.2 mph - N/A   Overcast
10:14 AM 73.4 °F 69.8 °F 88% 30.03 in 10.0 mi NNE 11.5 mph - N/A   Overcast
10:56 AM 73.9 °F 69.1 °F 85% 30.05 in 10.0 mi North 8.1 mph - N/A   Overcast
11:56 AM 71.1 °F 66.9 °F 87% 30.07 in 10.0 mi NNE 9.2 mph - N/A   Overcast
12:07 PM 71.6 °F 66.2 °F 83% 30.07 in 10.0 mi NNE 8.1 mph - N/A   Overcast
12:56 PM 71.1 °F 66.9 °F 87% 30.06 in 6.0 mi NE 12.7 mph - N/A   Overcast
1:56 PM 72.0 °F 66.0 °F 81% 30.07 in 10.0 mi NNE 10.4 mph - N/A   Overcast
2:19 PM 71.6 °F 64.4 °F 78% 30.07 in 10.0 mi NNE 12.7 mph - N/A   Overcast
2:56 PM 73.0 °F 64.0 °F 73% 30.08 in 10.0 mi NNE 13.8 mph - N/A   Overcast
3:35 PM 73.4 °F 64.4 °F 73% 30.08 in 10.0 mi NE 9.2 mph - N/A   Mostly Cloudy
3:56 PM 73.9 °F 64.0 °F 71% 30.09 in 10.0 mi NE 12.7 mph 19.6 mph N/A   Mostly Cloudy
4:56 PM 71.1 °F 64.0 °F 78% 30.10 in 10.0 mi NNE 11.5 mph - N/A   Overcast
5:38 PM 71.6 °F 64.4 °F 78% 30.09 in 10.0 mi NE 12.7 mph - N/A   Scattered Clouds
5:56 PM 71.1 °F 64.0 °F 78% 30.10 in 10.0 mi NNE 8.1 mph - N/A   Partly Cloudy
6:44 PM 69.8 °F 62.6 °F 78% 30.11 in 10.0 mi NNE 6.9 mph - N/A   Mostly Cloudy
6:52 PM 69.8 °F 62.6 °F 78% 30.11 in 10.0 mi NNE 6.9 mph - N/A   Mostly Cloudy
6:56 PM 69.1 °F 63.0 °F 81% 30.12 in 10.0 mi NNE 8.1 mph - N/A   Mostly Cloudy
7:11 PM 69.8 °F 64.4 °F 83% 30.11 in 10.0 mi NE 6.9 mph - N/A   Mostly Cloudy
7:56 PM 68.0 °F 64.0 °F 87% 30.13 in 10.0 mi NE 4.6 mph - N/A   Overcast
8:36 PM 68.0 °F 64.4 °F 88% 30.12 in 10.0 mi ENE 6.9 mph - N/A   Overcast
8:56 PM 66.9 °F 64.0 °F 90% 30.14 in 10.0 mi ENE 4.6 mph - N/A   Overcast
9:24 PM 66.2 °F 64.4 °F 94% 30.15 in 9.0 mi ENE 4.6 mph - N/A   Overcast
9:56 PM 66.9 °F 64.9 °F 93% 30.15 in 10.0 mi ENE 5.8 mph - N/A   Overcast
10:56 PM 66.9 °F 64.9 °F 93% 30.16 in 4.0 mi ENE 4.6 mph - N/A   Overcast
11:56 PM 66.9 °F 66.0 °F 97% 30.17 in 2.5 mi ENE 5.8 mph - N/A   Overcast